TimeEDT,TemperatureF,Dew PointF,Humidity,Sea Level PressureIn,VisibilityMPH,Wind Direction,Wind SpeedMPH,Gust SpeedMPH,PrecipitationIn,Events,Conditions,WindDirDegrees,DateUTC
12:56 AM,64.0,62.1,93,30.03,10.0,SE,4.6,-,N/A,Fog,Shallow Fog,130,2012-10-15 04:56:00
1:56 AM,64.0,62.1,93,30.01,10.0,Calm,Calm,-,N/A,Fog,Shallow Fog,0,2012-10-15 05:56:00
2:56 AM,62.1,61.0,96,29.99,10.0,Calm,Calm,-,N/A,Fog,Shallow Fog,0,2012-10-15 06:56:00
3:56 AM,63.0,62.1,97,29.96,10.0,Calm,Calm,-,N/A,Fog,Shallow Fog,0,2012-10-15 07:56:00
4:56 AM,62.1,61.0,96,29.96,10.0,Calm,Calm,-,N/A,,Partly Cloudy,0,2012-10-15 08:56:00
5:56 AM,63.0,61.0,93,29.96,10.0,NNW,3.5,-,N/A,,Mostly Cloudy,340,2012-10-15 09:56:00
6:56 AM,64.0,61.0,90,29.96,10.0,Calm,Calm,-,N/A,,Scattered Clouds,0,2012-10-15 10:56:00
7:56 AM,64.0,62.1,93,29.96,10.0,Calm,Calm,-,N/A,,Mostly Cloudy,0,2012-10-15 11:56:00
8:56 AM,69.1,66.0,90,29.97,10.0,Calm,Calm,-,N/A,,Mostly Cloudy,0,2012-10-15 12:56:00
9:56 AM,73.9,68.0,82,29.97,10.0,WSW,5.8,-,N/A,,Mostly Cloudy,240,2012-10-15 13:56:00
10:56 AM,78.1,68.0,71,29.95,10.0,SW,8.1,-,N/A,,Mostly Cloudy,230,2012-10-15 14:56:00
11:56 AM,79.0,66.9,66,29.93,10.0,WSW,12.7,-,N/A,,Mostly Cloudy,240,2012-10-15 15:56:00
12:56 PM,79.0,66.9,66,29.89,10.0,SW,11.5,-,N/A,,Mostly Cloudy,230,2012-10-15 16:56:00
1:56 PM,81.0,66.9,62,29.85,10.0,SW,12.7,20.7,N/A,,Mostly Cloudy,220,2012-10-15 17:56:00
2:56 PM,80.1,66.0,62,29.82,10.0,SW,9.2,-,N/A,,Mostly Cloudy,230,2012-10-15 18:56:00
3:56 PM,79.0,66.9,66,29.79,10.0,SSW,9.2,-,N/A,,Mostly Cloudy,210,2012-10-15 19:56:00
4:56 PM,80.1,68.0,67,29.78,10.0,SW,12.7,-,N/A,,Mostly Cloudy,230,2012-10-15 20:56:00
5:56 PM,79.0,66.9,66,29.78,10.0,West,11.5,-,0.00,,Scattered Clouds,260,2012-10-15 21:56:00
6:56 PM,73.9,66.0,76,29.79,10.0,WSW,6.9,-,N/A,,Scattered Clouds,240,2012-10-15 22:56:00
7:56 PM,71.1,66.9,87,29.79,10.0,SW,4.6,-,N/A,,Partly Cloudy,230,2012-10-15 23:56:00
8:56 PM,70.0,66.0,87,29.81,10.0,SW,3.5,-,N/A,,Partly Cloudy,230,2012-10-16 00:56:00
9:56 PM,69.1,64.9,87,29.82,10.0,West,3.5,-,N/A,,Partly Cloudy,270,2012-10-16 01:56:00
10:56 PM,70.0,60.1,71,29.84,10.0,WNW,8.1,-,N/A,,Partly Cloudy,300,2012-10-16 02:56:00
11:56 PM,64.9,57.9,78,29.85,10.0,NNW,6.9,-,N/A,,Partly Cloudy,330,2012-10-16 03:56:00